Time,TemperatureF,DewpointF,PressureIn,WindDirection,WindDirectionDegrees,WindSpeedMPH,WindSpeedGustMPH,Humidity,HourlyPrecipIn,Conditions,Clouds,dailyrainin,SoftwareType,DateUTC
2013-01-17 00:22:00,64.0,27.0,30.17,ENE,60,1.0,-999.0,25,0.00,,,-99.99,,2013-01-17 08:22:00,
2013-01-17 00:32:00,64.0,27.0,30.17,ENE,60,1.0,-999.0,25,0.00,,,-99.99,,2013-01-17 08:32:00,
2013-01-17 01:22:00,67.0,25.0,30.16,East,80,7.0,-999.0,20,0.00,,,-99.99,,2013-01-17 09:22:00,
2013-01-17 01:32:00,67.0,25.0,30.16,East,80,7.0,-999.0,20,0.00,,,-99.99,,2013-01-17 09:32:00,
2013-01-17 02:22:00,64.0,24.0,30.17,ENE,70,3.0,-999.0,22,0.00,,,-99.99,,2013-01-17 10:22:00,
2013-01-17 02:32:00,64.0,24.0,30.17,ENE,70,3.0,-999.0,22,0.00,,,-99.99,,2013-01-17 10:32:00,
2013-01-17 02:42:00,64.0,24.0,30.17,ENE,70,3.0,-999.0,22,0.00,,,-99.99,,2013-01-17 10:42:00,
2013-01-17 03:22:00,65.0,24.0,30.17,North,0,0.0,-999.0,21,0.00,,,-99.99,,2013-01-17 11:22:00,
2013-01-17 03:32:00,65.0,24.0,30.17,North,0,0.0,-999.0,21,0.00,,,-99.99,,2013-01-17 11:32:00,
2013-01-17 04:22:00,59.0,27.0,30.17,NNE,30,2.0,-999.0,29,0.00,,,-99.99,,2013-01-17 12:22:00,
2013-01-17 04:32:00,59.0,27.0,30.17,NNE,30,2.0,-999.0,29,0.00,,,-99.99,,2013-01-17 12:32:00,
2013-01-17 04:42:00,59.0,27.0,30.17,NNE,30,2.0,-999.0,29,0.00,,,-99.99,,2013-01-17 12:42:00,
2013-01-17 05:22:00,57.0,29.0,30.17,ENE,60,4.0,-999.0,34,0.00,,,-99.99,,2013-01-17 13:22:00,
2013-01-17 05:33:00,57.0,29.0,30.17,ENE,60,4.0,-999.0,34,0.00,,,-99.99,,2013-01-17 13:33:00,
2013-01-17 05:42:00,57.0,29.0,30.17,ENE,60,4.0,-999.0,34,0.00,,,-99.99,,2013-01-17 13:42:00,
2013-01-17 06:23:00,54.0,30.0,30.17,NE,50,5.0,-999.0,39,0.00,,,-99.99,,2013-01-17 14:23:00,
2013-01-17 06:33:00,54.0,30.0,30.17,NE,50,5.0,-999.0,39,0.00,,,-99.99,,2013-01-17 14:33:00,
2013-01-17 06:42:00,54.0,30.0,30.17,NE,50,5.0,-999.0,39,0.00,,,-99.99,,2013-01-17 14:42:00,
2013-01-17 07:22:00,56.0,27.0,30.18,ENE,60,7.0,-999.0,33,0.00,,,-99.99,,2013-01-17 15:22:00,
2013-01-17 07:33:00,56.0,27.0,30.18,ENE,60,7.0,-999.0,33,0.00,,,-99.99,,2013-01-17 15:33:00,
2013-01-17 07:43:00,56.0,27.0,30.18,ENE,60,7.0,-999.0,33,0.00,,,-99.99,,2013-01-17 15:43:00,
2013-01-17 08:22:00,61.0,26.0,30.19,ENE,70,5.0,-999.0,26,0.00,,,-99.99,,2013-01-17 16:22:00,
2013-01-17 08:33:00,61.0,26.0,30.19,ENE,70,5.0,-999.0,26,0.00,,,-99.99,,2013-01-17 16:33:00,
2013-01-17 08:43:00,61.0,26.0,30.19,ENE,70,5.0,-999.0,26,0.00,,,-99.99,,2013-01-17 16:43:00,
2013-01-17 09:22:00,67.0,25.0,30.20,East,80,7.0,-999.0,20,0.00,,,-99.99,,2013-01-17 17:22:00,
2013-01-17 09:33:00,67.0,25.0,30.20,East,80,7.0,-999.0,20,0.00,,,-99.99,,2013-01-17 17:33:00,
2013-01-17 09:43:00,67.0,25.0,30.20,East,80,7.0,-999.0,20,0.00,,,-99.99,,2013-01-17 17:43:00,
2013-01-17 10:22:00,71.0,24.0,30.20,East,100,8.0,-999.0,17,0.00,,,-99.99,,2013-01-17 18:22:00,
2013-01-17 10:33:00,71.0,24.0,30.20,East,100,8.0,-999.0,17,0.00,,,-99.99,,2013-01-17 18:33:00,
2013-01-17 10:43:00,71.0,24.0,30.20,East,100,8.0,-999.0,17,0.00,,,-99.99,,2013-01-17 18:43:00,
2013-01-17 11:22:00,74.0,23.0,30.18,ESE,120,13.0,-999.0,15,0.00,,,-99.99,,2013-01-17 19:22:00,
2013-01-17 11:33:00,74.0,23.0,30.18,ESE,120,13.0,-999.0,15,0.00,,,-99.99,,2013-01-17 19:33:00,
2013-01-17 11:42:00,74.0,23.0,30.18,ESE,120,13.0,-999.0,15,0.00,,,-99.99,,2013-01-17 19:42:00,
2013-01-17 12:23:00,77.0,24.0,30.14,ENE,60,5.0,-999.0,14,0.00,,,-99.99,,2013-01-17 20:23:00,
2013-01-17 12:33:00,77.0,24.0,30.14,ENE,60,5.0,-999.0,14,0.00,,,-99.99,,2013-01-17 20:33:00,
2013-01-17 12:43:00,77.0,24.0,30.14,ENE,60,5.0,-999.0,14,0.00,,,-99.99,,2013-01-17 20:43:00,
2013-01-17 13:23:00,78.0,21.0,30.11,East,80,13.0,-999.0,12,0.00,,,-99.99,,2013-01-17 21:23:00,
2013-01-17 13:33:00,78.0,21.0,30.11,East,80,13.0,-999.0,12,0.00,,,-99.99,,2013-01-17 21:33:00,
2013-01-17 13:42:00,78.0,21.0,30.11,East,80,13.0,-999.0,12,0.00,,,-99.99,,2013-01-17 21:42:00,
2013-01-17 14:22:00,77.0,20.0,30.09,East,80,14.0,-999.0,12,0.00,,,-99.99,,2013-01-17 22:22:00,
2013-01-17 14:33:00,77.0,20.0,30.09,East,80,14.0,-999.0,12,0.00,,,-99.99,,2013-01-17 22:33:00,
2013-01-17 14:42:00,77.0,20.0,30.09,East,80,14.0,-999.0,12,0.00,,,-99.99,,2013-01-17 22:42:00,
2013-01-17 18:22:00,72.0,20.0,30.13,ESE,110,9.0,-999.0,14,0.00,,,-99.99,,2013-01-18 02:22:00,
2013-01-17 18:32:00,72.0,20.0,30.13,ESE,110,9.0,-999.0,14,0.00,,,-99.99,,2013-01-18 02:32:00,
2013-01-17 18:42:00,72.0,20.0,30.13,ESE,110,9.0,-999.0,14,0.00,,,-99.99,,2013-01-18 02:42:00,
2013-01-17 18:52:00,72.0,20.0,30.13,ESE,110,9.0,-999.0,14,0.00,,,-99.99,,2013-01-18 02:52:00,
2013-01-17 19:12:00,70.0,20.0,30.14,East,80,3.0,-999.0,15,0.00,,,-99.99,,2013-01-18 03:12:00,
2013-01-17 19:22:00,70.0,22.0,30.14,East,80,1.0,-999.0,16,0.00,,,-99.99,,2013-01-18 03:22:00,
2013-01-17 19:33:00,70.0,22.0,30.14,East,80,1.0,-999.0,16,0.00,,,-99.99,,2013-01-18 03:33:00,
2013-01-17 19:42:00,70.0,22.0,30.14,East,80,1.0,-999.0,16,0.00,,,-99.99,,2013-01-18 03:42:00,
2013-01-17 20:22:00,69.0,19.0,30.14,East,90,7.0,-999.0,15,0.00,,,-99.99,,2013-01-18 04:22:00,
2013-01-17 20:32:00,69.0,19.0,30.14,East,90,7.0,-999.0,15,0.00,,,-99.99,,2013-01-18 04:32:00,
2013-01-17 20:42:00,69.0,19.0,30.14,East,90,7.0,-999.0,15,0.00,,,-99.99,,2013-01-18 04:42:00,
2013-01-17 21:22:00,68.0,20.0,30.14,ENE,70,5.0,-999.0,16,0.00,,,-99.99,,2013-01-18 05:22:00,
2013-01-17 21:33:00,68.0,20.0,30.14,ENE,70,5.0,-999.0,16,0.00,,,-99.99,,2013-01-18 05:33:00,
2013-01-17 21:42:00,68.0,20.0,30.14,ENE,70,5.0,-999.0,16,0.00,,,-99.99,,2013-01-18 05:42:00,
2013-01-17 22:22:00,69.0,21.0,30.14,East,100,4.0,-999.0,16,0.00,,,-99.99,,2013-01-18 06:22:00,
2013-01-17 22:32:00,69.0,21.0,30.14,East,100,4.0,-999.0,16,0.00,,,-99.99,,2013-01-18 06:32:00,
2013-01-17 22:43:00,69.0,21.0,30.14,East,100,4.0,-999.0,16,0.00,,,-99.99,,2013-01-18 06:43:00,
2013-01-17 23:22:00,68.0,22.0,30.15,East,100,3.0,-999.0,17,0.00,,,-99.99,,2013-01-18 07:22:00,
2013-01-17 23:32:00,68.0,22.0,30.15,East,100,3.0,-999.0,17,0.00,,,-99.99,,2013-01-18 07:32:00,
2013-01-17 23:42:00,68.0,22.0,30.15,East,100,3.0,-999.0,17,0.00,,,-99.99,,2013-01-18 07:42:00,